Location: Elaina
(34.1445°N, 106.7742°W)
Time: 12:03:23
(UTC+00:00)

NOSS 3-1 (C) - Pass Details

Date: 21 March 2026
Orbit: 618 x 1583 km, 63.4° (Epoch: 10 January)

Event Time Altitude Azimuth Distance (km) Brightness Sun altitude
Rises 02:06:31 0° 169° (S) 2,872 5.8 -10.6°
Reaches altitude 10° 02:09:26 10° 147° (SSE) 1,986 4.8 -11.2°
Enters shadow 02:12:10 16° 108° (ESE) 1,656 4.1 -11.8°
